Change the Weather History Date:

Sunday, January 20, 2013

  Actual Average Record
Temperature  
Mean Temperature 8 °F -  
Max Temperature 12 °F 24 °F 45 °F (1968)
Min Temperature 3 °F 5 °F -25 °F (1985)
Degree Days  
Heating Degree Days 58    
Moisture  
Dew Point -2 °F    
Average Humidity 65    
Maximum Humidity 73    
Minimum Humidity 57    
Precipitation  
Precipitation 0.00 in - - ()
Sea Level Pressure  
Sea Level Pressure 30.29 in    
Wind  
Wind Speed 16 mph (NW)    
Max Wind Speed 22 mph    
Max Gust Speed 30 mph    
Visibility 10 miles    
Events Snow    
Averages and records for this station are not official NWS values.
T = Trace of Precipitation, MM = Missing Value Source: NWS Daily Summary

Daily Weather History Graph

Daily Weather History Graph

Search for Another Location

Airport or City:

Trip Planner

Search our weather history database for the weather conditions in past years. The results will help you decide how hot, cold, wet, or windy it might be!

Date:

Astronomy

Jan. 20, 2013 Rise Set
Actual Time 7:36 AM CST 5:07 PM CST
Civil Twilight 7:04 AM CST 5:38 PM CST
Nautical Twilight 6:30 AM CST 6:13 PM CST
Astronomical Twilight 5:56 AM CST 6:47 PM CST
Moon 12:09 PM CST (1/20) 2:07 AM CST (1/20)
Length of Visible Light 10h 33m
Length of Day
9h 31m
Waxing Gibbous, 66% of the Moon is Illuminated
Jan 20
Waxing Gibbous
Jan 26
Full
Feb 3
Last Quarter
Feb 10
New
Feb 17
First Quarter

Hourly Weather History & Observations

Time (CST) Temp. Windchill Dew Point Humidity Pressure Visibility Wind Dir Wind Speed Gust Speed Precip Events Conditions
12:15 AM 6.8 °F -13.4 °F -2.2 °F 67% 30.19 in 10.0 mi NW 20.7 mph 28.8 mph N/A   Overcast
12:35 AM 6.8 °F -13.8 °F -2.2 °F 67% 30.21 in 10.0 mi NW 21.9 mph 28.8 mph N/A   Mostly Cloudy
12:55 AM 6.8 °F -12.4 °F -2.2 °F 67% 30.22 in 10.0 mi NW 18.4 mph 27.6 mph N/A   Mostly Cloudy
1:15 AM 6.8 °F -12.4 °F -2.2 °F 67% 30.23 in 10.0 mi NW 18.4 mph 25.3 mph N/A   Overcast
1:35 AM 6.8 °F -13.4 °F -2.2 °F 67% 30.24 in 10.0 mi NW 20.7 mph 27.6 mph N/A   Overcast
1:55 AM 5.0 °F -15.2 °F -2.2 °F 72% 30.25 in 10.0 mi NW 19.6 mph 25.3 mph N/A   Overcast
2:15 AM 5.0 °F -15.2 °F -4.0 °F 66% 30.26 in 10.0 mi NW 19.6 mph 29.9 mph N/A   Overcast
2:35 AM 5.0 °F -14.7 °F -4.0 °F 66% 30.27 in 10.0 mi NW 18.4 mph 28.8 mph N/A   Mostly Cloudy
2:55 AM 5.0 °F -14.7 °F -4.0 °F 66% 30.26 in 10.0 mi NW 18.4 mph 26.5 mph N/A   Mostly Cloudy
3:15 AM 5.0 °F -16.2 °F -4.0 °F 66% 30.27 in 10.0 mi NW 21.9 mph 27.6 mph N/A   Mostly Cloudy
3:35 AM 5.0 °F -14.7 °F -4.0 °F 66% 30.28 in 10.0 mi NW 18.4 mph - N/A   Partly Cloudy
3:55 AM 5.0 °F -13.0 °F -4.0 °F 66% 30.28 in 10.0 mi NW 15.0 mph 20.7 mph N/A   Mostly Cloudy
4:15 AM 3.2 °F -17.1 °F -5.8 °F 66% 30.28 in 10.0 mi NW 18.4 mph 26.5 mph N/A   Mostly Cloudy
4:35 AM 3.2 °F -16.5 °F -4.0 °F 72% 30.29 in 10.0 mi NW 17.3 mph 25.3 mph N/A   Scattered Clouds
4:55 AM 3.2 °F -15.3 °F -4.0 °F 72% 30.29 in 10.0 mi NW 15.0 mph 21.9 mph N/A   Scattered Clouds
5:15 AM 3.2 °F -13.9 °F -4.0 °F 72% 30.29 in 10.0 mi NW 12.7 mph 20.7 mph N/A   Partly Cloudy
5:35 AM 3.2 °F -14.6 °F -4.0 °F 72% 30.28 in 10.0 mi NW 13.8 mph - N/A   Partly Cloudy
5:55 AM 3.2 °F -14.6 °F -4.0 °F 72% 30.29 in 10.0 mi NW 13.8 mph - N/A   Clear
6:15 AM 3.2 °F -13.9 °F -5.8 °F 66% 30.29 in 10.0 mi NW 12.7 mph - N/A   Clear
6:35 AM 3.2 °F -12.2 °F -4.0 °F 72% 30.30 in 10.0 mi NW 10.4 mph - N/A   Mostly Cloudy
6:55 AM 3.2 °F -13.1 °F -4.0 °F 72% 30.31 in 10.0 mi WNW 11.5 mph - N/A   Overcast
7:15 AM 3.2 °F -12.2 °F -5.8 °F 66% 30.31 in 10.0 mi NW 10.4 mph - N/A   Mostly Cloudy
7:35 AM 3.2 °F -11.3 °F -5.8 °F 66% 30.31 in 10.0 mi NNW 9.2 mph - N/A   Scattered Clouds
7:55 AM 3.2 °F -11.3 °F -5.8 °F 66% 30.30 in 10.0 mi NW 9.2 mph - N/A   Clear
8:15 AM 3.2 °F -10.3 °F -4.0 °F 72% 30.32 in 10.0 mi NW 8.1 mph - N/A   Clear
8:35 AM 5.0 °F -12.3 °F -4.0 °F 66% 30.34 in 10.0 mi NW 13.8 mph - N/A   Partly Cloudy
8:55 AM 5.0 °F -10.8 °F -4.0 °F 66% 30.34 in 10.0 mi WNW 11.5 mph - N/A   Partly Cloudy
9:15 AM 5.0 °F -10.0 °F -4.0 °F 66% 30.35 in 10.0 mi WNW 10.4 mph - N/A   Partly Cloudy
9:35 AM 5.0 °F -10.8 °F -4.0 °F 66% 30.35 in 10.0 mi NW 11.5 mph - N/A   Partly Cloudy
9:55 AM 5.0 °F -12.3 °F -4.0 °F 66% 30.36 in 10.0 mi WNW 13.8 mph - N/A   Clear
10:15 AM 6.8 °F -10.0 °F -4.0 °F 61% 30.36 in 10.0 mi WNW 13.8 mph - N/A   Clear
10:35 AM 6.8 °F -8.6 °F -4.0 °F 61% 30.36 in 10.0 mi WNW 11.5 mph - N/A   Clear
10:55 AM 6.8 °F -10.0 °F -2.2 °F 67% 30.36 in 10.0 mi WNW 13.8 mph - N/A   Clear
11:15 AM 8.6 °F -4.7 °F -2.2 °F 62% 30.35 in 10.0 mi WNW 9.2 mph - N/A   Clear
11:35 AM 8.6 °F -4.7 °F -2.2 °F 62% 30.34 in 10.0 mi WNW 9.2 mph 15.0 mph N/A   Clear
11:55 AM 8.6 °F -5.5 °F -2.2 °F 62% 30.35 in 10.0 mi WNW 10.4 mph - N/A   Clear
12:15 PM 10.4 °F -6.0 °F -2.2 °F 57% 30.34 in 10.0 mi WNW 15.0 mph - N/A   Clear
12:35 PM 10.4 °F -5.4 °F -2.2 °F 57% 30.33 in 10.0 mi WNW 13.8 mph - N/A Snow Light Snow
12:55 PM 10.4 °F -5.4 °F -2.2 °F 57% 30.33 in 10.0 mi NW 13.8 mph - N/A   Mostly Cloudy
1:15 PM 12.2 °F -3.1 °F -0.4 °F 57% 30.33 in 10.0 mi WNW 13.8 mph - N/A   Overcast
1:35 PM 12.2 °F -4.8 °F -0.4 °F 57% 30.32 in 10.0 mi NW 17.3 mph - N/A   Overcast
1:55 PM 12.2 °F -4.3 °F -0.4 °F 57% 30.32 in 10.0 mi WNW 16.1 mph - N/A   Overcast
2:15 PM 12.2 °F -3.7 °F -0.4 °F 57% 30.31 in 10.0 mi WNW 15.0 mph - N/A   Overcast
2:35 PM 12.2 °F -5.3 °F -0.4 °F 57% 30.31 in 10.0 mi WNW 18.4 mph - N/A   Mostly Cloudy
2:55 PM 12.2 °F -5.3 °F -0.4 °F 57% 30.30 in 10.0 mi WNW 18.4 mph - N/A   Overcast
3:15 PM 12.2 °F -5.8 °F -0.4 °F 57% 30.31 in 10.0 mi WNW 19.6 mph - N/A   Overcast
3:35 PM 12.2 °F -2.5 °F -0.4 °F 57% 30.30 in 10.0 mi WNW 12.7 mph 19.6 mph N/A   Mostly Cloudy
3:55 PM 12.2 °F -2.5 °F 1.4 °F 62% 30.30 in 10.0 mi NW 12.7 mph 21.9 mph N/A   Partly Cloudy
4:15 PM 12.2 °F -3.1 °F 1.4 °F 62% 30.29 in 10.0 mi WNW 13.8 mph - N/A   Mostly Cloudy
4:35 PM 12.2 °F -3.1 °F -0.4 °F 57% 30.29 in 10.0 mi NW 13.8 mph 19.6 mph N/A   Overcast
4:55 PM 10.4 °F -6.6 °F -0.4 °F 62% 30.30 in 10.0 mi WNW 16.1 mph - N/A   Mostly Cloudy
5:15 PM 10.4 °F -4.1 °F 1.4 °F 67% 30.29 in 10.0 mi WNW 11.5 mph - N/A   Scattered Clouds
5:35 PM 10.4 °F -3.3 °F 1.4 °F 67% 30.29 in 10.0 mi WNW 10.4 mph - N/A   Overcast
5:55 PM 10.4 °F -3.3 °F -0.4 °F 62% 30.28 in 10.0 mi West 10.4 mph - N/A   Scattered Clouds
6:15 PM 8.6 °F -5.5 °F -0.4 °F 67% 30.28 in 10.0 mi WNW 10.4 mph - N/A   Clear
6:55 PM 8.6 °F -3.7 °F 1.4 °F 73% 30.27 in 10.0 mi WNW 8.1 mph - N/A   Mostly Cloudy
7:15 PM 8.6 °F -4.7 °F 1.4 °F 73% 30.28 in 10.0 mi WNW 9.2 mph - N/A   Mostly Cloudy
7:35 PM 10.4 °F -4.8 °F 1.4 °F 67% 30.27 in 10.0 mi West 12.7 mph - N/A   Overcast
7:55 PM 10.4 °F -4.1 °F 1.4 °F 67% 30.26 in 10.0 mi West 11.5 mph - N/A   Overcast
8:15 PM 10.4 °F -4.1 °F 3.2 °F 73% 30.26 in 9.0 mi WNW 11.5 mph - N/A Snow Light Snow
8:35 PM 10.4 °F -1.5 °F 3.2 °F 73% 30.25 in 8.0 mi WNW 8.1 mph - N/A Snow Light Snow
8:55 PM - - - N/A% 30.25 in - NW 12.7 mph - N/A   Unknown
9:15 PM 10.4 °F -8.2 °F 3.2 °F 73% 30.25 in 2.5 mi NW 19.6 mph - N/A Snow Light Snow
9:35 PM 10.4 °F -7.2 °F -0.4 °F 62% 30.25 in 10.0 mi NW 17.3 mph - N/A   Overcast
9:55 PM 8.6 °F -7.0 °F -0.4 °F 67% 30.25 in 10.0 mi NW 12.7 mph 21.9 mph N/A   Overcast
10:15 PM 8.6 °F -7.7 °F -0.4 °F 67% 30.24 in 10.0 mi WNW 13.8 mph 19.6 mph N/A   Mostly Cloudy
10:35 PM 8.6 °F -9.5 °F -2.2 °F 62% 30.25 in 10.0 mi WNW 17.3 mph - N/A   Mostly Cloudy
10:55 PM 6.8 °F -11.8 °F -2.2 °F 67% 30.24 in 10.0 mi NW 17.3 mph 26.5 mph N/A   Mostly Cloudy
11:15 PM 6.8 °F -10.0 °F -0.4 °F 72% 30.25 in 6.0 mi NW 13.8 mph - N/A Snow Light Snow
11:35 PM 5.0 °F -15.2 °F -4.0 °F 66% 30.25 in 10.0 mi NW 19.6 mph - N/A   Mostly Cloudy
11:55 PM 5.0 °F -14.2 °F -4.0 °F 66% 30.25 in 10.0 mi NW 17.3 mph - N/A   Scattered Clouds